Year,Month,Day,Hour,Minute,Value (Times are PST for temperature in C)
2015,07,02,00,00,24.30
2015,07,02,00,01,24.30
2015,07,02,00,02,24.30
2015,07,02,00,03,24.20
2015,07,02,00,04,24.20
2015,07,02,00,05,24.20
2015,07,02,00,06,24.20
2015,07,02,00,07,24.10
2015,07,02,00,08,24.10
2015,07,02,00,09,24.10
2015,07,02,00,10,24.00
2015,07,02,00,11,24.00
2015,07,02,00,12,23.90
2015,07,02,00,13,23.90
2015,07,02,00,14,23.90
2015,07,02,00,15,23.80
2015,07,02,00,16,23.80
2015,07,02,00,17,23.80
2015,07,02,00,18,23.80
2015,07,02,00,19,23.80
2015,07,02,00,20,23.80
2015,07,02,00,21,23.70
2015,07,02,00,22,23.70
2015,07,02,00,23,23.70
2015,07,02,00,24,23.70
2015,07,02,00,25,23.70
2015,07,02,00,26,23.70
2015,07,02,00,27,23.70
2015,07,02,00,28,23.60
2015,07,02,00,29,23.60
2015,07,02,00,30,23.70
2015,07,02,00,31,23.70
2015,07,02,00,32,23.70
2015,07,02,00,33,23.60
2015,07,02,00,34,23.60
2015,07,02,00,35,23.60
2015,07,02,00,36,23.60
2015,07,02,00,37,23.60
2015,07,02,00,38,23.60
2015,07,02,00,39,23.60
2015,07,02,00,40,23.60
2015,07,02,00,41,23.60
2015,07,02,00,42,23.60
2015,07,02,00,43,23.60
2015,07,02,00,44,23.50
2015,07,02,00,45,23.50
2015,07,02,00,46,23.50
2015,07,02,00,47,23.40
2015,07,02,00,48,23.40
2015,07,02,00,49,23.40
2015,07,02,00,50,23.40
2015,07,02,00,51,23.30
2015,07,02,00,52,23.30
2015,07,02,00,53,23.30
2015,07,02,00,54,23.30
2015,07,02,00,55,23.20
2015,07,02,00,56,23.20
2015,07,02,00,57,23.20
2015,07,02,00,58,23.20
2015,07,02,00,59,23.10
2015,07,02,01,00,23.10
2015,07,02,01,01,23.10
2015,07,02,01,02,23.00
2015,07,02,01,03,23.00
2015,07,02,01,04,23.00
2015,07,02,01,05,22.90
2015,07,02,01,06,22.90
2015,07,02,01,07,22.90
2015,07,02,01,08,22.80
2015,07,02,01,09,22.80
2015,07,02,01,10,22.80
2015,07,02,01,11,22.80
2015,07,02,01,12,22.70
2015,07,02,01,13,22.70
2015,07,02,01,14,22.70
2015,07,02,01,15,22.60
2015,07,02,01,16,22.60
2015,07,02,01,17,22.60
2015,07,02,01,18,22.60
2015,07,02,01,19,22.60
2015,07,02,01,20,22.60
2015,07,02,01,21,22.60
2015,07,02,01,22,22.60
2015,07,02,01,23,22.60
2015,07,02,01,24,22.60
2015,07,02,01,25,22.60
2015,07,02,01,26,22.50
2015,07,02,01,27,22.50
2015,07,02,01,28,22.50
2015,07,02,01,29,22.50
2015,07,02,01,30,22.40
2015,07,02,01,31,22.40
2015,07,02,01,32,22.40
2015,07,02,01,33,22.40
2015,07,02,01,34,22.40
2015,07,02,01,35,22.30
2015,07,02,01,36,22.30
2015,07,02,01,37,22.30
2015,07,02,01,38,22.30
2015,07,02,01,39,22.20
2015,07,02,01,40,22.20
2015,07,02,01,41,22.20
2015,07,02,01,42,22.10
2015,07,02,01,43,22.10
2015,07,02,01,44,22.10
2015,07,02,01,45,22.10
2015,07,02,01,46,22.10
2015,07,02,01,47,22.10
2015,07,02,01,48,22.00
2015,07,02,01,49,22.00
2015,07,02,01,50,22.00
2015,07,02,01,51,22.10
2015,07,02,01,52,22.10
2015,07,02,01,53,22.10
2015,07,02,01,54,22.10
2015,07,02,01,55,22.00
2015,07,02,01,56,22.10
2015,07,02,01,57,22.10
2015,07,02,01,58,22.10
2015,07,02,01,59,22.20
2015,07,02,02,00,22.20
2015,07,02,02,01,22.30
2015,07,02,02,02,22.30
2015,07,02,02,03,22.40
2015,07,02,02,04,22.40
2015,07,02,02,05,22.50
2015,07,02,02,06,22.50
2015,07,02,02,07,22.60
2015,07,02,02,08,22.60
2015,07,02,02,09,22.60
2015,07,02,02,10,22.60
2015,07,02,02,11,22.60
2015,07,02,02,12,22.60
2015,07,02,02,13,22.50
2015,07,02,02,14,22.50
2015,07,02,02,15,22.40
2015,07,02,02,16,22.40
2015,07,02,02,17,22.40
2015,07,02,02,18,22.40
2015,07,02,02,19,22.30
2015,07,02,02,20,22.30
2015,07,02,02,21,22.30
2015,07,02,02,22,22.20
2015,07,02,02,23,22.20
2015,07,02,02,24,22.20
2015,07,02,02,25,22.20
2015,07,02,02,26,22.20
2015,07,02,02,27,22.20
2015,07,02,02,28,22.20
2015,07,02,02,29,22.20
2015,07,02,02,30,22.30
2015,07,02,02,31,22.30
2015,07,02,02,32,22.30
2015,07,02,02,33,22.30
2015,07,02,02,34,22.30
2015,07,02,02,35,22.30
2015,07,02,02,36,22.30
2015,07,02,02,37,22.30
2015,07,02,02,38,22.30
2015,07,02,02,39,22.30
2015,07,02,02,40,22.30
2015,07,02,02,41,22.30
2015,07,02,02,42,22.30
2015,07,02,02,43,22.30
2015,07,02,02,44,22.30
2015,07,02,02,45,22.30
2015,07,02,02,46,22.20
2015,07,02,02,47,22.20
2015,07,02,02,48,22.20
2015,07,02,02,49,22.10
2015,07,02,02,50,22.10
2015,07,02,02,51,22.00
2015,07,02,02,52,22.00
2015,07,02,02,53,21.90
2015,07,02,02,54,21.90
2015,07,02,02,55,21.90
2015,07,02,02,56,21.90
2015,07,02,02,57,21.90
2015,07,02,02,58,22.00
2015,07,02,02,59,22.00
2015,07,02,03,00,21.90
2015,07,02,03,01,21.90
2015,07,02,03,02,21.90
2015,07,02,03,03,21.90
2015,07,02,03,04,21.90
2015,07,02,03,05,21.90
2015,07,02,03,06,21.90
2015,07,02,03,07,21.90
2015,07,02,03,08,21.90
2015,07,02,03,09,21.90
2015,07,02,03,10,21.90
2015,07,02,03,11,21.90
2015,07,02,03,12,21.90
2015,07,02,03,13,21.90
2015,07,02,03,14,22.00
2015,07,02,03,15,22.00
2015,07,02,03,16,22.00
2015,07,02,03,17,22.00
2015,07,02,03,18,22.00
2015,07,02,03,19,22.00
2015,07,02,03,20,22.00
2015,07,02,03,21,21.90
2015,07,02,03,22,21.90
2015,07,02,03,23,21.90
2015,07,02,03,24,21.90
2015,07,02,03,25,21.80
2015,07,02,03,26,21.80
2015,07,02,03,27,21.80
2015,07,02,03,28,21.80
2015,07,02,03,29,21.70
2015,07,02,03,30,21.70
2015,07,02,03,31,21.70
2015,07,02,03,32,21.70
2015,07,02,03,33,21.60
2015,07,02,03,34,21.60
2015,07,02,03,35,21.60
2015,07,02,03,36,21.60
2015,07,02,03,37,21.50
2015,07,02,03,38,21.50
2015,07,02,03,39,21.50
2015,07,02,03,40,21.40
2015,07,02,03,41,21.40
2015,07,02,03,42,21.40
2015,07,02,03,43,21.40
2015,07,02,03,44,21.30
2015,07,02,03,45,21.20
2015,07,02,03,46,21.20
2015,07,02,03,47,21.10
2015,07,02,03,48,21.00
2015,07,02,03,49,21.00
2015,07,02,03,50,20.90
2015,07,02,03,51,20.80
2015,07,02,03,52,20.80
2015,07,02,03,53,20.70
2015,07,02,03,54,20.70
2015,07,02,03,55,20.70
2015,07,02,03,56,20.60
2015,07,02,03,57,20.60
2015,07,02,03,58,20.60
2015,07,02,03,59,20.60
2015,07,02,04,00,20.60
2015,07,02,04,01,20.60
2015,07,02,04,02,20.60
2015,07,02,04,03,20.60
2015,07,02,04,04,20.60
2015,07,02,04,05,20.60
2015,07,02,04,06,20.50
2015,07,02,04,07,20.50
2015,07,02,04,08,20.40
2015,07,02,04,09,20.40
2015,07,02,04,10,20.40
2015,07,02,04,11,20.40
2015,07,02,04,12,20.30
2015,07,02,04,13,20.30
2015,07,02,04,14,20.30
2015,07,02,04,15,20.30
2015,07,02,04,16,20.20
2015,07,02,04,17,20.20
2015,07,02,04,18,20.20
2015,07,02,04,19,20.20
2015,07,02,04,20,20.10
2015,07,02,04,21,20.10
2015,07,02,04,22,20.10
2015,07,02,04,23,20.10
2015,07,02,04,24,20.00
2015,07,02,04,25,20.00
2015,07,02,04,26,19.90
2015,07,02,04,27,19.90
2015,07,02,04,28,19.90
2015,07,02,04,29,19.80
2015,07,02,04,30,19.80
2015,07,02,04,31,19.80
2015,07,02,04,32,19.80
2015,07,02,04,33,19.80
2015,07,02,04,34,19.70
2015,07,02,04,35,19.70
2015,07,02,04,36,19.70
2015,07,02,04,37,19.70
2015,07,02,04,38,19.60
2015,07,02,04,39,19.60
2015,07,02,04,40,19.60
2015,07,02,04,41,19.60
2015,07,02,04,42,19.50
2015,07,02,04,43,19.50
2015,07,02,04,44,19.50
2015,07,02,04,45,19.40
2015,07,02,04,46,19.40
2015,07,02,04,47,19.40
2015,07,02,04,48,19.40
2015,07,02,04,49,19.30
2015,07,02,04,50,19.30
2015,07,02,04,51,19.30
2015,07,02,04,52,19.20
2015,07,02,04,53,19.20
2015,07,02,04,54,19.20
2015,07,02,04,55,19.10
2015,07,02,04,56,19.10
2015,07,02,04,57,19.00
2015,07,02,04,58,19.00
2015,07,02,04,59,19.00
2015,07,02,05,00,18.90
2015,07,02,05,01,18.90
2015,07,02,05,02,18.80
2015,07,02,05,03,18.80
2015,07,02,05,04,18.80
2015,07,02,05,05,18.70
2015,07,02,05,06,18.70
2015,07,02,05,07,18.70
2015,07,02,05,08,18.70
2015,07,02,05,09,18.70
2015,07,02,05,10,18.80
2015,07,02,05,11,18.80
2015,07,02,05,12,18.80
2015,07,02,05,13,18.80
2015,07,02,05,14,18.80
2015,07,02,05,15,18.70
2015,07,02,05,16,18.70
2015,07,02,05,17,18.70
2015,07,02,05,18,18.70
2015,07,02,05,19,18.60
2015,07,02,05,20,18.60
2015,07,02,05,21,18.60
2015,07,02,05,22,18.60
2015,07,02,05,23,18.60
2015,07,02,05,24,18.50
2015,07,02,05,25,18.50
2015,07,02,05,26,18.50
2015,07,02,05,27,18.50
2015,07,02,05,28,18.40
2015,07,02,05,29,18.40
2015,07,02,05,30,18.40
2015,07,02,05,31,18.30
2015,07,02,05,32,18.30
2015,07,02,05,33,18.30
2015,07,02,05,34,18.30
2015,07,02,05,35,18.30
2015,07,02,05,36,18.20
2015,07,02,05,37,18.20
2015,07,02,05,38,18.20
2015,07,02,05,39,18.20
2015,07,02,05,40,18.20
2015,07,02,05,41,18.20
2015,07,02,05,42,18.20
2015,07,02,05,43,18.10
2015,07,02,05,44,18.10
2015,07,02,05,45,18.10
2015,07,02,05,46,18.10
2015,07,02,05,47,18.10
2015,07,02,05,48,18.10
2015,07,02,05,49,18.10
2015,07,02,05,50,18.10
2015,07,02,05,51,18.10
2015,07,02,05,52,18.10
2015,07,02,05,53,18.10
2015,07,02,05,54,18.10
2015,07,02,05,55,18.10
2015,07,02,05,56,18.10
2015,07,02,05,57,18.10
2015,07,02,05,58,18.00
2015,07,02,05,59,18.10
2015,07,02,06,00,18.00
2015,07,02,06,01,18.00
2015,07,02,06,02,18.00
2015,07,02,06,03,18.00
2015,07,02,06,04,18.00
2015,07,02,06,05,18.00
2015,07,02,06,06,18.00
2015,07,02,06,07,18.00
2015,07,02,06,08,18.00
2015,07,02,06,09,18.10
2015,07,02,06,10,18.10
2015,07,02,06,11,18.10
2015,07,02,06,12,18.10
2015,07,02,06,13,18.10
2015,07,02,06,14,18.10
2015,07,02,06,15,18.10
2015,07,02,06,16,18.10
2015,07,02,06,17,18.00
2015,07,02,06,18,18.00
2015,07,02,06,19,18.00
2015,07,02,06,20,18.00
2015,07,02,06,21,18.00
2015,07,02,06,22,18.00
2015,07,02,06,23,18.00
2015,07,02,06,24,18.00
2015,07,02,06,25,18.00
2015,07,02,06,26,18.00
2015,07,02,06,27,18.00
2015,07,02,06,28,18.00
2015,07,02,06,29,18.00
2015,07,02,06,30,18.00
2015,07,02,06,31,18.00
2015,07,02,06,32,18.00
2015,07,02,06,33,18.00
2015,07,02,06,34,18.00
2015,07,02,06,35,18.00
2015,07,02,06,36,18.00
2015,07,02,06,37,18.00
2015,07,02,06,38,18.10
2015,07,02,06,39,18.10
2015,07,02,06,40,18.10
2015,07,02,06,41,18.10
2015,07,02,06,42,18.10
2015,07,02,06,43,18.10
2015,07,02,06,44,18.10
2015,07,02,06,45,18.20
2015,07,02,06,46,18.20
2015,07,02,06,47,18.20
2015,07,02,06,48,18.20
2015,07,02,06,49,18.20
2015,07,02,06,50,18.20
2015,07,02,06,51,18.30
2015,07,02,06,52,18.30
2015,07,02,06,53,18.30
2015,07,02,06,54,18.30
2015,07,02,06,55,18.30
2015,07,02,06,56,18.30
2015,07,02,06,57,18.30
2015,07,02,06,58,18.40
2015,07,02,06,59,18.40
2015,07,02,07,00,18.40
2015,07,02,07,01,18.40
2015,07,02,07,02,18.40
2015,07,02,07,03,18.40
2015,07,02,07,04,18.40
2015,07,02,07,05,18.40
2015,07,02,07,06,18.50
2015,07,02,07,07,18.50
2015,07,02,07,08,18.60
2015,07,02,07,09,18.60
2015,07,02,07,10,18.60
2015,07,02,07,11,18.60
2015,07,02,07,12,18.60
2015,07,02,07,13,18.60
2015,07,02,07,14,18.60
2015,07,02,07,15,18.60
2015,07,02,07,16,18.60
2015,07,02,07,17,18.60
2015,07,02,07,18,18.60
2015,07,02,07,19,18.60
2015,07,02,07,20,18.60
2015,07,02,07,21,18.60
2015,07,02,07,22,18.60
2015,07,02,07,23,18.70
2015,07,02,07,24,18.70
2015,07,02,07,25,18.70
2015,07,02,07,26,18.70
2015,07,02,07,27,18.80
2015,07,02,07,28,18.80
2015,07,02,07,29,18.80
2015,07,02,07,30,18.80
2015,07,02,07,31,18.80
2015,07,02,07,32,18.80
2015,07,02,07,33,18.90
2015,07,02,07,34,18.90
2015,07,02,07,35,19.00
2015,07,02,07,36,19.00
2015,07,02,07,37,19.00
2015,07,02,07,38,19.10
2015,07,02,07,39,19.10
2015,07,02,07,40,19.10
2015,07,02,07,41,19.20
2015,07,02,07,42,19.20
2015,07,02,07,43,19.30
2015,07,02,07,44,19.30
2015,07,02,07,45,19.30
2015,07,02,07,46,19.30
2015,07,02,07,47,19.40
2015,07,02,07,48,19.40
2015,07,02,07,49,19.40
2015,07,02,07,50,19.30
2015,07,02,07,51,19.30
2015,07,02,07,52,19.30
2015,07,02,07,53,19.30
2015,07,02,07,54,19.30
2015,07,02,07,55,19.30
2015,07,02,07,56,19.30
2015,07,02,07,57,19.30
2015,07,02,07,58,19.30
2015,07,02,07,59,19.30
2015,07,02,08,00,19.30
2015,07,02,08,01,19.30
2015,07,02,08,02,19.40
2015,07,02,08,03,19.40
2015,07,02,08,04,19.40
2015,07,02,08,05,19.50
2015,07,02,08,06,19.50
2015,07,02,08,07,19.60
2015,07,02,08,08,19.60
2015,07,02,08,09,19.70
2015,07,02,08,10,19.70
2015,07,02,08,11,19.70
2015,07,02,08,12,19.80
2015,07,02,08,13,19.90
2015,07,02,08,14,19.90
2015,07,02,08,15,20.00
2015,07,02,08,16,20.10
2015,07,02,08,17,20.10
2015,07,02,08,18,20.10
2015,07,02,08,19,20.20
2015,07,02,08,20,20.20
2015,07,02,08,21,20.20
2015,07,02,08,22,20.30
2015,07,02,08,23,20.30
2015,07,02,08,24,20.40
2015,07,02,08,25,20.50
2015,07,02,08,26,20.60
2015,07,02,08,27,20.60
2015,07,02,08,28,20.60
2015,07,02,08,29,20.60
2015,07,02,08,30,20.60
2015,07,02,08,31,20.60
2015,07,02,08,32,20.60
2015,07,02,08,33,20.60
2015,07,02,08,34,20.60
2015,07,02,08,35,20.70
2015,07,02,08,36,20.70
2015,07,02,08,37,20.70
2015,07,02,08,38,20.70
2015,07,02,08,39,20.80
2015,07,02,08,40,20.80
2015,07,02,08,41,20.80
2015,07,02,08,42,20.90
2015,07,02,08,43,20.90
2015,07,02,08,44,21.00
2015,07,02,08,45,21.00
2015,07,02,08,46,21.10
2015,07,02,08,47,21.10
2015,07,02,08,48,21.10
2015,07,02,08,49,21.10
2015,07,02,08,50,21.00
2015,07,02,08,51,21.00
2015,07,02,08,52,21.00
2015,07,02,08,53,21.00
2015,07,02,08,54,21.00
2015,07,02,08,55,21.00
2015,07,02,08,56,21.00
2015,07,02,08,57,21.00
2015,07,02,08,58,21.00
2015,07,02,08,59,21.10
2015,07,02,09,00,21.10
2015,07,02,09,01,21.10
2015,07,02,09,02,21.20
2015,07,02,09,03,21.30
2015,07,02,09,04,21.30
2015,07,02,09,05,21.40
2015,07,02,09,06,21.40
2015,07,02,09,07,21.40
2015,07,02,09,08,21.40
2015,07,02,09,09,21.30
2015,07,02,09,10,21.20
2015,07,02,09,11,21.20
2015,07,02,09,12,21.20
2015,07,02,09,13,21.20
2015,07,02,09,14,21.20
2015,07,02,09,15,21.30
2015,07,02,09,16,21.40
2015,07,02,09,17,21.50
2015,07,02,09,18,21.60
2015,07,02,09,19,21.70
2015,07,02,09,20,21.80
2015,07,02,09,21,21.80
2015,07,02,09,22,21.80
2015,07,02,09,23,21.80
2015,07,02,09,24,21.80
2015,07,02,09,25,21.70
2015,07,02,09,26,21.70
2015,07,02,09,27,21.70
2015,07,02,09,28,21.70
2015,07,02,09,29,21.70
2015,07,02,09,30,21.70
2015,07,02,09,31,21.70
2015,07,02,09,32,21.80
2015,07,02,09,33,21.80
2015,07,02,09,34,21.80
2015,07,02,09,35,21.80
2015,07,02,09,36,21.90
2015,07,02,09,37,22.00
2015,07,02,09,38,22.00
2015,07,02,09,39,22.10
2015,07,02,09,40,22.10
2015,07,02,09,41,22.20
2015,07,02,09,42,22.20
2015,07,02,09,43,22.30
2015,07,02,09,44,22.30
2015,07,02,09,45,22.30
2015,07,02,09,46,22.30
2015,07,02,09,47,22.30
2015,07,02,09,48,22.40
2015,07,02,09,49,22.40
2015,07,02,09,50,22.40
2015,07,02,09,51,22.40
2015,07,02,09,52,22.40
2015,07,02,09,53,22.40
2015,07,02,09,54,22.50
2015,07,02,09,55,22.60
2015,07,02,09,56,22.60
2015,07,02,09,57,22.70
2015,07,02,09,58,22.70
2015,07,02,09,59,22.70
2015,07,02,10,00,22.70
2015,07,02,10,01,22.70
2015,07,02,10,02,22.70
2015,07,02,10,03,22.70
2015,07,02,10,04,22.70
2015,07,02,10,05,22.70
2015,07,02,10,06,22.60
2015,07,02,10,07,22.60
2015,07,02,10,08,22.50
2015,07,02,10,09,22.40
2015,07,02,10,10,22.40
2015,07,02,10,11,22.40
2015,07,02,10,12,22.50
2015,07,02,10,13,22.50
2015,07,02,10,14,22.60
2015,07,02,10,15,22.60
2015,07,02,10,16,22.60
2015,07,02,10,17,22.70
2015,07,02,10,18,22.70
2015,07,02,10,19,22.80
2015,07,02,10,20,22.90
2015,07,02,10,21,22.90
2015,07,02,10,22,23.00
2015,07,02,10,23,23.00
2015,07,02,10,24,23.10
2015,07,02,10,25,23.10
2015,07,02,10,26,23.20
2015,07,02,10,27,23.20
2015,07,02,10,28,23.30
2015,07,02,10,29,23.40
2015,07,02,10,30,23.40
2015,07,02,10,31,23.40
2015,07,02,10,32,23.40
2015,07,02,10,33,23.40
2015,07,02,10,34,23.50
2015,07,02,10,35,23.50
2015,07,02,10,36,23.60
2015,07,02,10,37,23.60
2015,07,02,10,38,23.70
2015,07,02,10,39,23.70
2015,07,02,10,40,23.70
2015,07,02,10,41,23.70
2015,07,02,10,42,23.70
2015,07,02,10,43,23.80
2015,07,02,10,44,23.80
2015,07,02,10,45,23.80
2015,07,02,10,46,23.80
2015,07,02,10,47,23.70
2015,07,02,10,48,23.70
2015,07,02,10,49,23.70
2015,07,02,10,50,23.80
2015,07,02,10,51,23.90
2015,07,02,10,52,23.90
2015,07,02,10,53,24.00
2015,07,02,10,54,24.00
2015,07,02,10,55,24.10
2015,07,02,10,56,24.20
2015,07,02,10,57,24.30
2015,07,02,10,58,24.30
2015,07,02,10,59,24.30
2015,07,02,11,00,24.40
2015,07,02,11,01,24.40
2015,07,02,11,02,24.50
2015,07,02,11,03,24.50
2015,07,02,11,04,24.60
2015,07,02,11,05,24.60
2015,07,02,11,06,24.60
2015,07,02,11,07,24.60
2015,07,02,11,08,24.60
2015,07,02,11,09,24.50
2015,07,02,11,10,24.50
2015,07,02,11,11,24.50
2015,07,02,11,12,24.50
2015,07,02,11,13,24.50
2015,07,02,11,14,24.40
2015,07,02,11,15,24.30
2015,07,02,11,16,24.20
2015,07,02,11,17,24.20
2015,07,02,11,18,24.10
2015,07,02,11,19,24.10
2015,07,02,11,20,24.00
2015,07,02,11,21,23.90
2015,07,02,11,22,23.80
2015,07,02,11,23,23.80
2015,07,02,11,24,23.70
2015,07,02,11,25,23.70
2015,07,02,11,26,23.60
2015,07,02,11,27,23.70
2015,07,02,11,28,23.70
2015,07,02,11,29,23.70
2015,07,02,11,30,23.80
2015,07,02,11,31,23.90
2015,07,02,11,32,24.00
2015,07,02,11,33,24.10
2015,07,02,11,34,24.10
2015,07,02,11,35,24.10
2015,07,02,11,36,24.10
2015,07,02,11,37,24.00
2015,07,02,11,38,24.10
2015,07,02,11,39,24.10
2015,07,02,11,40,24.20
2015,07,02,11,41,24.30
2015,07,02,11,42,24.40
2015,07,02,11,43,24.60
2015,07,02,11,44,24.70
2015,07,02,11,45,24.80
2015,07,02,11,46,24.90
2015,07,02,11,47,25.00
2015,07,02,11,48,25.10
2015,07,02,11,49,25.10
2015,07,02,11,50,25.20
2015,07,02,11,51,25.20
2015,07,02,11,52,25.20
2015,07,02,11,53,25.20
2015,07,02,11,54,25.20
2015,07,02,11,55,25.20
2015,07,02,11,56,25.20
2015,07,02,11,57,25.20
2015,07,02,11,58,25.30
2015,07,02,11,59,25.30
2015,07,02,12,00,25.30
2015,07,02,12,01,25.30
2015,07,02,12,02,25.20
2015,07,02,12,03,25.10
2015,07,02,12,04,25.00
2015,07,02,12,05,24.80
2015,07,02,12,06,24.70
2015,07,02,12,07,24.60
2015,07,02,12,08,24.40
2015,07,02,12,09,24.30
2015,07,02,12,10,24.30
2015,07,02,12,11,24.30
2015,07,02,12,12,24.30
2015,07,02,12,13,24.30
2015,07,02,12,14,24.40
2015,07,02,12,15,24.50
2015,07,02,12,16,24.60
2015,07,02,12,17,24.70
2015,07,02,12,18,24.80
2015,07,02,12,19,24.90
2015,07,02,12,20,25.00
2015,07,02,12,21,25.10
2015,07,02,12,22,25.30
2015,07,02,12,23,25.40
2015,07,02,12,24,25.60
2015,07,02,12,25,25.70
2015,07,02,12,26,25.70
2015,07,02,12,27,25.90
2015,07,02,12,28,25.90
2015,07,02,12,29,25.90
2015,07,02,12,30,25.90
2015,07,02,12,31,25.90
2015,07,02,12,32,25.80
2015,07,02,12,33,25.70
2015,07,02,12,34,25.70
2015,07,02,12,35,25.70
2015,07,02,12,36,25.80
2015,07,02,12,37,25.90
2015,07,02,12,38,25.90
2015,07,02,12,39,26.00
2015,07,02,12,40,26.00
2015,07,02,12,41,26.10
2015,07,02,12,42,26.20
2015,07,02,12,43,26.30
2015,07,02,12,44,26.40
2015,07,02,12,45,26.50
2015,07,02,12,46,26.60
2015,07,02,12,47,26.60
2015,07,02,12,48,26.70
2015,07,02,12,49,26.70
2015,07,02,12,50,26.70
2015,07,02,12,51,26.60
2015,07,02,12,52,26.60
2015,07,02,12,53,26.50
2015,07,02,12,54,26.40
2015,07,02,12,55,26.40
2015,07,02,12,56,26.50
2015,07,02,12,57,26.50
2015,07,02,12,58,26.50
2015,07,02,12,59,26.60
2015,07,02,13,00,26.60
2015,07,02,13,01,26.60
2015,07,02,13,02,26.70
2015,07,02,13,03,26.70
2015,07,02,13,04,26.60
2015,07,02,13,05,26.60
2015,07,02,13,06,26.70
2015,07,02,13,07,26.70
2015,07,02,13,08,26.80
2015,07,02,13,09,26.80
2015,07,02,13,10,26.90
2015,07,02,13,11,26.90
2015,07,02,13,12,26.90
2015,07,02,13,13,26.90
2015,07,02,13,14,26.90
2015,07,02,13,15,26.90
2015,07,02,13,16,26.90
2015,07,02,13,17,26.90
2015,07,02,13,18,27.00
2015,07,02,13,19,27.00
2015,07,02,13,20,27.10
2015,07,02,13,21,27.00
2015,07,02,13,22,27.00
2015,07,02,13,23,27.10
2015,07,02,13,24,27.10
2015,07,02,13,25,27.20
2015,07,02,13,26,27.20
2015,07,02,13,27,27.20
2015,07,02,13,28,27.20
2015,07,02,13,29,27.30
2015,07,02,13,30,27.30
2015,07,02,13,31,27.30
2015,07,02,13,32,27.30
2015,07,02,13,33,27.30
2015,07,02,13,34,27.30
2015,07,02,13,35,27.20
2015,07,02,13,36,27.20
2015,07,02,13,37,27.20
2015,07,02,13,38,27.30
2015,07,02,13,39,27.40
2015,07,02,13,40,27.40
2015,07,02,13,41,27.40
2015,07,02,13,42,27.40
2015,07,02,13,43,27.40
2015,07,02,13,44,27.40
2015,07,02,13,45,27.40
2015,07,02,13,46,27.40
2015,07,02,13,47,27.50
2015,07,02,13,48,27.50
2015,07,02,13,49,27.40
2015,07,02,13,50,27.40
2015,07,02,13,51,27.40
2015,07,02,13,52,27.50
2015,07,02,13,53,27.50
2015,07,02,13,54,27.60
2015,07,02,13,55,27.60
2015,07,02,13,56,27.60
2015,07,02,13,57,27.60
2015,07,02,13,58,27.70
2015,07,02,13,59,27.70
2015,07,02,14,00,27.70
2015,07,02,14,01,27.70
2015,07,02,14,02,27.70
2015,07,02,14,03,27.80
2015,07,02,14,04,27.80
2015,07,02,14,05,27.90
2015,07,02,14,06,28.00
2015,07,02,14,07,28.00
2015,07,02,14,08,28.00
2015,07,02,14,09,28.10
2015,07,02,14,10,28.10
2015,07,02,14,11,28.10
2015,07,02,14,12,28.10
2015,07,02,14,13,28.20
2015,07,02,14,14,28.20
2015,07,02,14,15,28.30
2015,07,02,14,16,28.40
2015,07,02,14,17,28.50
2015,07,02,14,18,28.50
2015,07,02,14,19,28.50
2015,07,02,14,20,28.40
2015,07,02,14,21,28.40
2015,07,02,14,22,28.30
2015,07,02,14,23,28.20
2015,07,02,14,24,28.20
2015,07,02,14,25,28.10
2015,07,02,14,26,28.10
2015,07,02,14,27,28.20
2015,07,02,14,28,28.20
2015,07,02,14,29,28.30
2015,07,02,14,30,28.30
2015,07,02,14,31,28.30
2015,07,02,14,32,28.30
2015,07,02,14,33,28.30
2015,07,02,14,34,28.40
2015,07,02,14,35,28.50
2015,07,02,14,36,28.60
2015,07,02,14,37,28.70
2015,07,02,14,38,28.80
2015,07,02,14,39,28.90
2015,07,02,14,40,29.00
2015,07,02,14,41,29.10
2015,07,02,14,42,29.00
2015,07,02,14,43,28.90
2015,07,02,14,44,28.80
2015,07,02,14,45,28.80
2015,07,02,14,46,28.90
2015,07,02,14,47,28.90
2015,07,02,14,48,28.80
2015,07,02,14,49,28.80
2015,07,02,14,50,28.80
2015,07,02,14,51,28.80
2015,07,02,14,52,28.80
2015,07,02,14,53,28.80
2015,07,02,14,54,28.80
2015,07,02,14,55,28.90
2015,07,02,14,56,28.90
2015,07,02,14,57,28.90
2015,07,02,14,58,28.90
2015,07,02,14,59,28.80
2015,07,02,15,00,28.80
2015,07,02,15,01,28.80
2015,07,02,15,02,28.80
2015,07,02,15,03,28.90
2015,07,02,15,04,28.90
2015,07,02,15,05,28.90
2015,07,02,15,06,28.90
2015,07,02,15,07,28.90
2015,07,02,15,08,28.90
2015,07,02,15,09,28.90
2015,07,02,15,10,28.90
2015,07,02,15,11,28.90
2015,07,02,15,12,28.90
2015,07,02,15,13,28.90
2015,07,02,15,14,29.00
2015,07,02,15,15,29.00
2015,07,02,15,16,29.10
2015,07,02,15,17,29.10
2015,07,02,15,18,29.10
2015,07,02,15,19,29.00
2015,07,02,15,20,29.00
2015,07,02,15,21,29.00
2015,07,02,15,22,29.00
2015,07,02,15,23,29.10
2015,07,02,15,24,29.10
2015,07,02,15,25,29.10
2015,07,02,15,26,29.00
2015,07,02,15,27,29.10
2015,07,02,15,28,29.10
2015,07,02,15,29,29.20
2015,07,02,15,30,29.20
2015,07,02,15,31,29.30
2015,07,02,15,32,29.40
2015,07,02,15,33,29.50
2015,07,02,15,34,29.50
2015,07,02,15,35,29.50
2015,07,02,15,36,29.40
2015,07,02,15,37,29.40
2015,07,02,15,38,29.40
2015,07,02,15,39,29.50
2015,07,02,15,40,29.60
2015,07,02,15,41,29.60
2015,07,02,15,42,29.60
2015,07,02,15,43,29.60
2015,07,02,15,44,29.60
2015,07,02,15,45,29.60
2015,07,02,15,46,29.70
2015,07,02,15,47,29.70
2015,07,02,15,48,29.70
2015,07,02,15,49,29.70
2015,07,02,15,50,29.70
2015,07,02,15,51,29.80
2015,07,02,15,52,29.80
2015,07,02,15,53,29.90
2015,07,02,15,54,29.90
2015,07,02,15,55,29.80
2015,07,02,15,56,29.80
2015,07,02,15,57,29.80
2015,07,02,15,58,29.80
2015,07,02,15,59,29.80
2015,07,02,16,00,29.90
2015,07,02,16,01,29.90
2015,07,02,16,02,29.90
2015,07,02,16,03,30.00
2015,07,02,16,04,30.10
2015,07,02,16,05,30.10
2015,07,02,16,06,30.10
2015,07,02,16,07,30.10
2015,07,02,16,08,30.00
2015,07,02,16,09,29.90
2015,07,02,16,10,30.00
2015,07,02,16,11,30.00
2015,07,02,16,12,30.10
2015,07,02,16,13,30.10
2015,07,02,16,14,30.20
2015,07,02,16,15,30.20
2015,07,02,16,16,30.10
2015,07,02,16,17,30.10
2015,07,02,16,18,30.00
2015,07,02,16,19,30.00
2015,07,02,16,20,29.90
2015,07,02,16,21,29.90
2015,07,02,16,22,30.00
2015,07,02,16,23,30.00
2015,07,02,16,24,30.10
2015,07,02,16,25,30.10
2015,07,02,16,26,30.10
2015,07,02,16,27,30.20
2015,07,02,16,28,30.20
2015,07,02,16,29,30.20
2015,07,02,16,30,30.20
2015,07,02,16,31,30.20
2015,07,02,16,32,30.20
2015,07,02,16,33,30.20
2015,07,02,16,34,30.20
2015,07,02,16,35,30.20
2015,07,02,16,36,30.20
2015,07,02,16,37,30.20
2015,07,02,16,38,30.20
2015,07,02,16,39,30.20
2015,07,02,16,40,30.30
2015,07,02,16,41,30.30
2015,07,02,16,42,30.40
2015,07,02,16,43,30.40
2015,07,02,16,44,30.40
2015,07,02,16,45,30.40
2015,07,02,16,46,30.40
2015,07,02,16,47,30.30
2015,07,02,16,48,30.40
2015,07,02,16,49,30.40
2015,07,02,16,50,30.40
2015,07,02,16,51,30.40
2015,07,02,16,52,30.50
2015,07,02,16,53,30.50
2015,07,02,16,54,30.50
2015,07,02,16,55,30.60
2015,07,02,16,56,30.60
2015,07,02,16,57,30.60
2015,07,02,16,58,30.60
2015,07,02,16,59,30.60
2015,07,02,17,00,30.60
2015,07,02,17,01,30.60
2015,07,02,17,02,30.50
2015,07,02,17,03,30.50
2015,07,02,17,04,30.40
2015,07,02,17,05,30.40
2015,07,02,17,06,30.40
2015,07,02,17,07,30.40
2015,07,02,17,08,30.40
2015,07,02,17,09,30.50
2015,07,02,17,10,30.60
2015,07,02,17,11,30.50
2015,07,02,17,12,30.60
2015,07,02,17,13,30.60
2015,07,02,17,14,30.60
2015,07,02,17,15,30.70
2015,07,02,17,16,30.70
2015,07,02,17,17,30.80
2015,07,02,17,18,30.80
2015,07,02,17,19,30.80